Regional Weather Roundup
Issued by NWS Portland, ME

Current Version | Previous Version | Text Only | Print | Product List | Glossary On
Versions: 1 2 3 4 5 6 7 8 9 10 11 12 13 14 15 16 17 18 19 20 21 22 23 24 25 26 27 28 29 30 31 32 33 34 35 36 37 38 39 40 41 42 43 44 45 46 47 48 49 50
000 ASUS41 KGYX 260910 RWRGYX WEATHER ROUNDUP FOR MAINE AND NEW HAMPSHIRE NATIONAL WEATHER SERVICE GRAY ME 400 AM EST FRI DEC 26 2014 MEZ002-005-006-010-012-015-018-020-021-024-026-027-029-261000- MAINE CITY SKY/WX TMP DP RH WIND PRES REMARKS PORTLAND CLEAR 41 26 55 SW9 29.93S SANFORD CLEAR 37 25 60 W3 29.96R BAR HARBOR CLEAR 39 28 65 SW6 29.86R WISCASSET CLEAR 35 27 72 W5 29.92F ROCKLAND CLEAR 39 27 60 SW9 29.87F FRYEBURG MOCLDY 42 24 49 NW9G18 29.93R LEWISTONAUBURN CLEAR 36 23 60 W7 29.90R AUGUSTA CLEAR 40 23 50 W9 29.88S WATERVILLE PTCLDY 41 23 48 W15G22 29.84S BANGOR PTCLDY 37 24 59 SW5 29.84R GREENVILLE N/A 35 22 58 NW8G29 29.70S MILLINOCKET PTCLDY 40 24 53 W15G25 29.74R HOULTON PTCLDY 38 22 52 W20G35 29.66R PRESQUE ISLE CLOUDY 39 21 48 W18G30 29.62R FRENCHVILLE CLOUDY 33 21 61 W25G41 29.54R CARIBOU CLOUDY 38 22 52 W20G38 29.59R $$ NHZ002-005-008-009-011-012-014-261000- NEW HAMPSHIRE CITY SKY/WX TMP DP RH WIND PRES REMARKS PORTSMOUTH PTCLDY 40 27 57 W10 29.99R ROCHESTER CLEAR 40 26 57 W10 29.96S NASHUA MOCLDY 37 28 70 CALM 30.03R MANCHESTER CLEAR 40 27 59 SW5 30.01R CONCORD CLOUDY 40 27 59 W12 30.00R PLYMOUTH FAIR 40 31 70 W12G23 29.97R BERLIN CLOUDY 38 24 57 NW9 29.91R WHITEFIELD CLOUDY 39 24 55 VRB3 29.97R JAFFREY CLOUDY 37 28 70 CALM 30.01R KEENE CLOUDY 41 27 56 CALM 30.04R LEBANON CLOUDY 41 27 57 NW3 30.01R MT WASHINGTON FOG 14 14 100 W82G99 N/A VSB 1/16WCI -16 $$ VTZ005-007-008-261000- VERMONT CITY SKY/WX TMP DP RH WIND PRES REMARKS ST JOHNSBURY N/A 39 26 59 MISG 29.97R MONTPELIER CLOUDY 37 26 64 W15G22 30.02R BURLINGTON CLOUDY 42 26 53 W9 30.03R $$ MAZ007-012-024-CTZ003-RIZ002-NYZ038-NYZ072-261000- SOUTHERN NEW ENGLAND AND NY CITY SKY/WX TMP DP RH WIND PRES REMARKS BOSTON CLEAR 40 29 64 SW9 30.05R WORCESTER CLEAR 37 27 67 W8 30.03R NANTUCKET CLEAR 42 32 67 W12 30.08R PROVIDENCE CLEAR 35 28 75 SW6 30.08R HARTFORD MOCLDY 41 29 62 NW3 30.09R ALBANY CLOUDY 42 27 55 W12G21 30.12S NEW YORK CITY CLEAR 42 29 59 W8 30.14F $$ ANZ081-ANZ082-ANZ150-NHZ014-MEZ023>029-261000- COASTAL MARINE OBSERVATIONS STATION/POSITION TIME TEMP WIND PRES WAVE AIR SEA DIR/SP/G HT/PER (UTC) (F) (DEG/KT/KT) (MB) (FT/S) MOUNT DESERT ROC 0900 44 1011.5R MATINICUS ROCK 0900 270/ 22/ 25 1011.9R PORTLAND WX BUOY 0850 43 44 250/ 17/ 21 1012.8F 3/ 9 WELLS 0800 41 40 280/ 8/ 11 1013.5S ISLE OF SHOALS 0900 42 250/ 16/ 17 1015.2R JEFFREYS LEDGE 0821 49 N/A 4/ 4 CASHES LEDGE BUO 0850 46 48 270/ 23/ 27 1012.6S $$ .............KEY.............. WCI - WIND CHILL TC - TEMPERATURE IN CELSIUS VSB - VISIBILITY IN MILES HX - HEAT INDEX FAIR- INDICATES FEW OR NO CLOUDS BELOW 12,000 FT, WITH NO SIGNIFICANT WEATHER AND/OR OBSTRUCTIONS TO VISIBILITY.

USA.gov is the U.S. government's official web portal to all federal, state and local government web resources and services.